When you browse on this site, cookies collect data to enhance your experience and personalize the content and advertising you see.
Visit our Privacy Policy to learn more. By continuing to use the site, you agree to this use of cookies and data.
  • In United Kingdom
  • List of Countries
  • For 7 days
  • Water Temperature
  • Satellite Maps
  • Weather Map
  • Weather Widgets
  • user-avatar
    Login

    Hourly Weather Nikoia

    Today, 25 June, Tuesday

    Time Temperature Precipitation Wind Pressure Humidity
    00:00 +25°C° 0 mm 1 mps 746 mmHg 89%
    01:00 +25°C° 0 mm 1 mps 746 mmHg 88%
    02:00 +25°C° 0 mm 1 mps 745 mmHg 88%
    03:00 +23°C° 0 mm 0 mps 745 mmHg 88%
    04:00 +23°C° 0 mm 0 mps 745 mmHg 88%
    05:00 +23°C° 0 mm 0 mps 745 mmHg 88%
    06:00 +26°C° 0 mm 1 mps 746 mmHg 88%
    07:00 +27°C° 0 mm 1 mps 746 mmHg 83%
    08:00 +29°C° 0 mm 1 mps 747 mmHg 78%
    09:00 +30°C° 0 mm 1 mps 747 mmHg 72%
    10:00 +31°C° 0 mm 1 mps 747 mmHg 70%
    11:00 +32°C° 0 mm 1 mps 747 mmHg 67%
    12:00 +33°C° 0 mm 1 mps 746 mmHg 64%
    13:00 +32°C° 0.1 mm 1 mps 746 mmHg 67%
    14:00 +32°C° 0.1 mm 2 mps 745 mmHg 69%
    15:00 +32°C° 0.1 mm 2 mps 744 mmHg 71%
    16:00 +31°C° 1.3 mm 2 mps 745 mmHg 77%
    17:00 +29°C° 1.3 mm 1 mps 745 mmHg 82%
    18:00 +28°C° 1.3 mm 1 mps 745 mmHg 88%
    19:00 +28°C° 0.1 mm 1 mps 745 mmHg 89%
    20:00 +25°C° 0.1 mm 0 mps 745 mmHg 89%
    21:00 +25°C° 0.1 mm 0 mps 746 mmHg 90%
    22:00 +25°C° 0 mm 0 mps 746 mmHg 91%
    23:00 +24°C° 0 mm 0 mps 746 mmHg 91%

    Tomorrow, 26 June, Wednesday

    Time Temperature Precipitation Wind Pressure Humidity
    00:00 +24°C° 0 mm 0 mps 746 mmHg 92%
    01:00 +24°C° 0 mm 0 mps 745 mmHg 92%
    02:00 +24°C° 0 mm 0 mps 745 mmHg 93%
    03:00 +24°C° 0 mm 0 mps 745 mmHg 93%
    04:00 +24°C° 0 mm 0 mps 745 mmHg 93%
    05:00 +24°C° 0 mm 0 mps 745 mmHg 93%
    06:00 +24°C° 0 mm 0 mps 745 mmHg 93%
    07:00 +27°C° 0 mm 1 mps 745 mmHg 87%
    08:00 +29°C° 0 mm 1 mps 745 mmHg 81%
    09:00 +30°C° 0 mm 2 mps 746 mmHg 75%
    10:00 +31°C° 0 mm 2 mps 745 mmHg 72%
    11:00 +32°C° 0 mm 2 mps 745 mmHg 69%
    12:00 +34°C° 0 mm 2 mps 745 mmHg 66%
    13:00 +32°C° 2 mm 2 mps 744 mmHg 69%
    14:00 +32°C° 2 mm 2 mps 744 mmHg 71%
    15:00 +33°C° 2 mm 3 mps 743 mmHg 74%
    16:00 +30°C° 2.2 mm 2 mps 744 mmHg 78%
    17:00 +29°C° 2.2 mm 2 mps 744 mmHg 81%
    18:00 +28°C° 2.2 mm 2 mps 744 mmHg 85%
    19:00 +27°C° 0.3 mm 2 mps 744 mmHg 85%
    20:00 +27°C° 0.3 mm 3 mps 745 mmHg 85%
    21:00 +26°C° 0.3 mm 3 mps 745 mmHg 85%
    22:00 +26°C° 0 mm 3 mps 745 mmHg 85%
    23:00 +26°C° 0 mm 2 mps 745 mmHg 85%

    Day after tomorrow, 27 June, Thursday

    Time Temperature Precipitation Wind Pressure Humidity
    00:00 +26°C° 0 mm 2 mps 745 mmHg 86%
    01:00 +25°C° 0 mm 2 mps 744 mmHg 86%
    02:00 +25°C° 0 mm 2 mps 744 mmHg 86%
    03:00 +25°C° 0 mm 2 mps 744 mmHg 87%
    04:00 +25°C° 0 mm 2 mps 744 mmHg 87%
    05:00 +25°C° 0 mm 2 mps 744 mmHg 88%
    06:00 +25°C° 0 mm 2 mps 744 mmHg 89%
    07:00 +27°C° 0 mm 2 mps 744 mmHg 83%
    08:00 +29°C° 0 mm 3 mps 745 mmHg 77%
    09:00 +30°C° 0 mm 3 mps 745 mmHg 71%
    10:00 +31°C° 0 mm 3 mps 745 mmHg 68%
    11:00 +33°C° 0 mm 3 mps 745 mmHg 65%
    12:00 +34°C° 0 mm 3 mps 745 mmHg 62%
    13:00 +33°C° 0.7 mm 3 mps 744 mmHg 67%
    14:00 +32°C° 0.7 mm 4 mps 744 mmHg 72%
    15:00 +32°C° 0.7 mm 4 mps 744 mmHg 77%
    16:00 +29°C° 0.7 mm 4 mps 744 mmHg 79%
    17:00 +28°C° 0.7 mm 3 mps 743 mmHg 82%
    18:00 +27°C° 0.7 mm 3 mps 743 mmHg 84%
    19:00 +27°C° 0 mm 3 mps 744 mmHg 84%
    20:00 +26°C° 0 mm 3 mps 745 mmHg 83%
    21:00 +26°C° 0 mm 3 mps 745 mmHg 83%
    22:00 +26°C° 0 mm 2 mps 745 mmHg 84%
    23:00 +26°C° 0 mm 2 mps 745 mmHg 85%

    28 June, Friday

    Time Temperature Precipitation Wind Pressure Humidity
    00:00 +25°C° 0 mm 2 mps 745 mmHg 86%
    01:00 +25°C° 0 mm 2 mps 744 mmHg 86%
    02:00 +25°C° 0 mm 2 mps 744 mmHg 86%
    03:00 +25°C° 0 mm 2 mps 744 mmHg 86%
    04:00 +25°C° 0 mm 2 mps 744 mmHg 86%
    05:00 +25°C° 0 mm 2 mps 744 mmHg 87%
    06:00 +25°C° 0 mm 2 mps 744 mmHg 87%
    07:00 +26°C° 0 mm 2 mps 745 mmHg 82%
    08:00 +28°C° 0 mm 2 mps 745 mmHg 77%
    09:00 +29°C° 0 mm 3 mps 746 mmHg 71%
    10:00 +30°C° 0 mm 3 mps 745 mmHg 68%
    11:00 +31°C° 0 mm 3 mps 745 mmHg 64%
    12:00 +33°C° 0 mm 3 mps 745 mmHg 61%
    13:00 +33°C° 0.4 mm 3 mps 744 mmHg 63%
    14:00 +33°C° 0.4 mm 3 mps 744 mmHg 65%
    15:00 +31°C° 0.4 mm 3 mps 743 mmHg 67%
    16:00 +30°C° 0.6 mm 3 mps 744 mmHg 72%
    17:00 +28°C° 0.6 mm 3 mps 744 mmHg 77%
    18:00 +27°C° 0.6 mm 2 mps 744 mmHg 82%
    19:00 +27°C° 0 mm 2 mps 745 mmHg 82%
    20:00 +26°C° 0 mm 2 mps 745 mmHg 83%
    21:00 +26°C° 0 mm 2 mps 746 mmHg 83%
    22:00 +25°C° 0 mm 1 mps 746 mmHg 85%
    23:00 +25°C° 0 mm 1 mps 746 mmHg 86%

    29 June, Saturday

    Time Temperature Precipitation Wind Pressure Humidity
    00:00 +25°C° 0 mm 1 mps 745 mmHg 87%
    01:00 +25°C° 0 mm 1 mps 745 mmHg 88%
    02:00 +25°C° 0 mm 1 mps 745 mmHg 89%
    03:00 +24°C° 0 mm 1 mps 744 mmHg 89%
    04:00 +25°C° 0 mm 1 mps 745 mmHg 90%
    05:00 +25°C° 0 mm 1 mps 745 mmHg 90%
    06:00 +25°C° 0 mm 1 mps 745 mmHg 90%
    07:00 +27°C° 0 mm 1 mps 745 mmHg 84%
    08:00 +28°C° 0 mm 2 mps 746 mmHg 78%
    09:00 +30°C° 0 mm 2 mps 746 mmHg 73%
    10:00 +31°C° 0.4 mm 2 mps 746 mmHg 72%
    11:00 +31°C° 0.4 mm 2 mps 746 mmHg 72%
    12:00 +32°C° 0.4 mm 2 mps 746 mmHg 72%
    13:00 +31°C° 2 mm 2 mps 745 mmHg 73%
    14:00 +31°C° 2 mm 2 mps 745 mmHg 75%
    15:00 +31°C° 2 mm 2 mps 744 mmHg 76%
    16:00 +29°C° 2 mm 2 mps 744 mmHg 81%
    17:00 +28°C° 2 mm 2 mps 745 mmHg 85%
    18:00 +27°C° 2 mm 1 mps 745 mmHg 90%
    19:00 +26°C° 1.4 mm 1 mps 745 mmHg 92%
    20:00 +26°C° 1.4 mm 1 mps 746 mmHg 94%
    21:00 +26°C° 1.4 mm 1 mps 746 mmHg 97%
    22:00 +25°C° 0 mm 1 mps 746 mmHg 96%
    23:00 +25°C° 0 mm 1 mps 746 mmHg 95%

    30 June, Sunday

    Time Temperature Precipitation Wind Pressure Humidity
    00:00 +25°C° 0 mm 1 mps 745 mmHg 94%
    01:00 +25°C° 0 mm 1 mps 745 mmHg 93%
    02:00 +23°C° 0 mm 0 mps 744 mmHg 91%
    03:00 +23°C° 0 mm 0 mps 744 mmHg 90%
    04:00 +23°C° 0 mm 0 mps 744 mmHg 91%
    05:00 +23°C° 0 mm 0 mps 745 mmHg 91%
    06:00 +25°C° 0 mm 1 mps 745 mmHg 91%
    07:00 +27°C° 0 mm 1 mps 745 mmHg 86%
    08:00 +28°C° 0 mm 1 mps 746 mmHg 80%
    09:00 +30°C° 0 mm 1 mps 746 mmHg 75%
    10:00 +31°C° 0 mm 1 mps 745 mmHg 72%
    11:00 +31°C° 0 mm 1 mps 745 mmHg 69%
    12:00 +32°C° 0 mm 1 mps 745 mmHg 67%
    13:00 +32°C° 0.6 mm 1 mps 744 mmHg 69%
    14:00 +32°C° 0.6 mm 2 mps 744 mmHg 70%
    15:00 +32°C° 0.6 mm 2 mps 743 mmHg 72%
    16:00 +30°C° 1.4 mm 2 mps 744 mmHg 78%
    17:00 +29°C° 1.4 mm 1 mps 744 mmHg 83%
    18:00 +28°C° 1.4 mm 1 mps 744 mmHg 89%
    19:00 +27°C° 0.1 mm 1 mps 745 mmHg 89%
    20:00 +25°C° 0.1 mm 0 mps 745 mmHg 90%
    21:00 +25°C° 0.1 mm 0 mps 746 mmHg 90%
    22:00 +24°C° 0 mm 0 mps 746 mmHg 91%
    23:00 +24°C° 0 mm 0 mps 746 mmHg 92%
    Show more